Showing default

YAOGAN-43 03C, 61619

Orbit data source: Space-Track

YAOGAN-43 03C, 61619 is a payload satellite owned by PLA GAD (CN) in LEO that was launched on Wed, 23 Oct 2024 UTC via a CHANG ZHENG 2C launch vehicle from the Xichang Space Center, China (XSC). Payload-class satellites include a variety of spacecraft equipped with specific instruments for various scientific and technological missions. These include communications satellites like Starlink; space stations such as the ISS; scientific satellites like the Hubble; Earth observation satellites from companies like Planet Labs, Umbra, and HawkEye 360; GPS; miniature CubeSats for education and research; and military/defense satellites.

Loading next visibility...
Identifier
61619, 2024-190C
Orbit
LEO
Country
Flag of CNCN / PRC
Related business
Manufacturer
SAST
Mission
Operational Defense Communications
Bus & Motor
Unknown
Mass
~300 kg wet, ~300 kg dry
Launch date (UTC)
2024-10-23 (11 months ago)
Launch vehicle
CHANG ZHENG 2C
Launch site
Xichang Space Center, China (XSC)
Object type
Payload
Rocket body
Debris
Shape & HBR
Box + 2 Pan, 2.5 m
Radar Cross Section
11.063 m², Large (>1 m²)

Expand to show TLE details & history
Last TLE update: 19 hours ago

TLE from 19 hours ago
0 YAOGAN-43 03C
1 61619U 24190C   25260.03423955  .00004654  00000-0  19411-3 0  9993
2 61619  34.9954 115.9905 0005889  24.0987 336.0003 15.23072723 50157
Epoch: 2025-09-17T00:49Z
TLE epoch observation values (Epoch: 2025-09-17T00:49:18.297Z)
Latitude
0.00003°
Longitude
107.44832°
Altitude
491.788 km
Speed
7.623 km/s
True Right ascension
07h 43m 57s
True Declination
0° 00' 00"
Sunlit
Object was in daylight at epoch
Visualization orbit readout
Latitude
Unknown
Longitude
Unknown
Altitude
Unknown
Speed
Unknown
Apparent Right ascension
Unknown
Apparent Declination
Unknown
Sunlit
N/A
Visualization observer readout
Local Sidereal Time
12:29:13
Azimuth
Unknown
Elevation
Unknown
Doppler factor
Unknown
Orbital elements
Apogee altitude
503.88 km
Perigee altitude
495.779 km
Semi-major axis
6,877.967 km
Eccentricity
0.00059
Inclination
34.9954°
RAAN
115.9905°
Arg. of periapsis
24.0987°
True anomaly
335.97283°
Mean anomaly
336.0003°
Eccentric anomaly
335.98657°
Mean motion
3.80499 °/min
Orbital period
94.61 mins
BSTAR
0.00019411
Loading maneuver chart data...
Computing Atmospheric mass density...
Loading historical data...
Loading historical data...
Loading historical data...
Loading historical data...
Loading historical data...
Loading historical data...
Loading historical data...
Other satellites on launch #190 in the year 2024 (2024-10-23 UTC)

Documentation

Showing up to 5 results
|